SCP
-0 -0 0 -0 -0 0 -0 0 0 0 -0 -0 -0 -0 -0 -0 0 0 -0 -0 0 0 0 0 -0 -0 -0 -0 -0 -0 -0 -0 -0 -0 -0 -0 -0 -0 -0 -0 0 0 0 0 0 0 0 0 0
-0 0 -0 -0 0 0 -0 -0 0 0 -0 0 -0 -0 -0 0 0 -0 0 0 0 -0 0 0 -0 -0 -0 -0 -0 -0 -0 -0 -0 -0 -0 0 0 0 0 0 0 0 0 0 0 0 0 0 0
0 -0 -0 -0 0 0 0 -0 -0 0 0 0 0 -0 0 0 -0 0 0 0 0 0 0 0 -0 -0 -0 -0 -0 0 0 0 0 0 0 0 0 0 0 0 0 0 0 0 0 0 0 0 0
0 -0 -0 0 0 0 0 0 0 0 0 0 0 0 0 -0 -0 0 -0 0 0 0 0 0 0 0 0 0 0 0 0 0 0 0 0 0 0 0 0 0 0 0 0 0 0 0 0 0 0
0 -0 0 0 0 0 0 -0 0 0 0 0 0 0 0 0 0 0 0 0 0 0 0 0 0 0 0 0 0 0 0 0 0 0 0 0 0 0 0 0 0 0 0 0 0 0 0 0 0
0 -0 0 0 0 0 0 0 0 0 0 0 0 0 0 0 0 0 0 0 0 0 0 0 0 0 0 0 0 0 0 0 0 0 0 0 0 0 0 0 0 0 0 0 0 0 0 0 0
-0 -0 -0 0 0 0 0 0 -0 0 0 0 0 0 0 0 0 0 0 0 0 0 0 0 0 0 0 0 0 0 0 0 0 0 0 1 1 1 1 1 0 0 0 0 0 1 0 0 0
-0 0 0 0 0 0 0 0 0 0 0 0 0 0 0 0 0 0 0 0 0 0 0 0 0 0 0 0 0 0 0 0 0 0 0 0 0 0 0 0 0 1 0 1 1 1 1 0 0
0 -0 0 0 0 0 0 0 0 0 0 0 0 0 0 0 0 0 0 0 0 0 0 0 0 0 0 0 0 0 0 0 0 0 0 0 0 0 0 0 0 0 0 0 0 0 0 1 0
0 0 0 0 0 0 0 0 0 0 0 0 1 1 0 0 0 0 0 0 0 -0 0 1 1 0 0 1 0 0 0 0 0 0 0 0 0 0 0 0 0 0 0 0 0 0 0 0 0
0 0 0 0 0 0 0 0 0 0 0 0 0 0 0 0 0 0 0 0 0 0 0 0 0 0 0 0 0 0 0 0 0 0 0 0 0 0 0 0 0 0 0 0 0 0 0 0 0
0 0 0 0 0 0 0 0 0 0 0 0 1 1 0 0 0 0 0 0 0 0 0 0 0 0 0 0 0 0 0 0 0 0 0 0 0 0 0 0 -0 -0 0 0 0 0 0 0 0
0 0 0 0 0 0 0 0 0 0 0 0 0 0 0 0 0 0 0 0 0 0 0 0 0 0 0 0 0 0 0 0 0 0 0 0 0 0 0 0 0 0 0 0 -0 0 0 0 0
0 0 0 0 0 0 0 0 0 0 0 0 0 0 0 0 0 0 0 0 0 0 0 0 0 0 0 0 0 0 0 0 0 0 0 0 0 0 0 0 0 0 0 0 0 0 0 0 0
0 0 0 0 0 0 0 0 0 0 0 0 0 0 0 0 0 0 0 0 0 0 0 0 0 0 0 0 0 0 0 0 0 0 0 0 0 0 0 0 0 0 0 0 0 0 0 0 0
0 0 0 0 0 0 0 0 0 0 0 0 0 0 0 0 0 0 0 0 0 0 0 0 0 0 0 0 0 0 0 0 0 0 0 0 0 0 0 0 0 0 0 0 0 0 0 0 0
0 0 0 0 0 0 0 0 0 0 0 0 0 0 0 0 0 0 -0 0 0 0 0 0 0 0 0 0 0 0 0 0 0 0 0 0 0 0 0 0 0 0 0 0 0 0 0 0 0
0 0 0 0 0 0 0 0 0 0 0 0 0 0 0 0 -0 -0 0 0 0 0 0 0 0 0 0 0 0 0 0 0 0 0 0 0 0 0 0 0 0 0 0 0 0 0 0 0 0
0 0 0 0 -0 0 0 0 0 0 0 0 0 0 0 -0 -0 0 0 0 0 0 0 0 0 0 0 0 0 0 0 0 0 0 0 0 0 0 0 0 0 -0 -0 -0 -0 0 0 0 0
0 0 0 -0 0 0 0 0 0 0 0 0 0 0 -0 -0 0 -0 0 0 -0 -0 -0 0 0 0 0 0 0 0 0 0 0 0 0 0 0 0 -0 -0 -0 -0 -0 0 0 0 0 0 0
0 0 0 0 0 0 0 0 0 0 0 0 0 0 0 0 0 0 0 -0 -0 -0 -0 -0 -0 0 0 0 0 0 0 0 0 0 0 0 0 0 0 0 0 0 0 0 0 0 0 0 0
0 0 0 0 0 0 0 0 0 0 0 0 0 0 0 0 0 0 -0 -0 -0 -0 -0 0 0 0 0 0 0 0 0 0 0 0 0 0 0 0 0 0 0 0 0 0 0 0 0 0 0
0 0 0 0 0 0 0 0 0 0 0 0 0 0 0 0 0 0 0 -0 -0 0 0 0 0 0 0 0 0 0 0 0 0 0 0 0 0 0 0 0 0 0 0 0 0 0 0 0 0
0 0 0 0 0 0 0 0 0 0 0 0 0 0 0 0 0 0 0 0 0 0 0 0 0 0 0 0 0 0 0 0 0 0 0 0 0 0 0 0 0 0 0 0 0 0 0 0 0
0 0 0 0 0 0 0 0 0 0 0 0 0 0 0 0 0 0 0 0 0 0 0 0 0 0 0 0 0 0 0 0 0 0 0 0 0 0 0 0 0 0 0 0 0 0 0 0 0
0 0 0 0 0 0 0 0 0 0 0 0 0 0 0 0 0 0 0 0 0 0 0 0 0 0 0 0 0 0 0 0 0 0 0 0 0 0 0 0 0 0 0 0 0 0 0 0 0
0 0 0 0 0 0 0 0 0 0 0 0 0 0 0 0 0 0 0 0 0 0 0 0 0 0 0 0 0 0 0 0 0 0 0 0 0 0 0 0 0 0 0 0 0 0 0 0 0
0 0 0 0 0 0 0 0 0 0 0 0 0 0 0 0 0 0 0 0 0 0 0 0 0 0 0 0 0 0 0 0 0 0 0 0 0 0 0 0 0 0 0 0 0 0 0 0 0
0 0 0 0 0 0 0 0 0 0 0 0 0 0 0 0 0 0 0 0 0 0 0 0 0 0 0 0 0 0 0 0 0 0 0 0 0 0 0 0 0 0 0 0 0 0 0 0 0
0 0 0 0 0 0 0 0 0 0 0 0 0 0 0 0 0 0 0 0 0 0 0 0 0 0 0 0 0 0 0 0 0 0 0 0 0 0 0 0 0 0 0 0 0 0 0 0 0
Wind_Speed_500mb
8 11 20 5 8 10 3 7 6 8 7 30 30 17 13 5 7 8 32 43 40 50 48 44 40 37 32 28 27 27 25 24 22 21 21 21 21 21 19 14 11 9 8 8 9 9 11 11 11
8 14 7 6 10 9 11 8 13 17 24 33 37 22 1 2 8 23 37 41 40 46 45 42 39 38 33 28 24 23 24 23 23 19 16 15 14 14 14 12 9 7 7 8 7 7 8 8 9
9 10 5 9 8 2 4 5 8 18 36 22 14 11 6 12 18 40 39 36 49 43 40 38 37 36 33 26 22 21 20 20 19 20 19 15 14 14 12 9 9 7 5 5 5 5 5 5 5
9 2 10 8 3 8 8 9 12 10 12 9 17 8 12 13 27 21 46 46 48 41 36 32 31 32 27 20 15 17 17 15 15 15 16 13 10 7 7 5 4 3 3 6 8 8 6 2 3
7 7 9 6 8 8 8 10 26 12 9 12 3 5 11 12 10 32 48 46 42 40 38 34 32 29 25 20 15 15 15 14 9 8 8 7 5 2 5 4 6 5 6 6 8 11 11 8 4
5 5 8 7 10 13 10 10 2 12 23 14 22 15 10 17 36 50 44 45 42 38 31 27 26 23 19 18 17 16 14 12 12 8 5 3 3 4 5 9 10 12 12 12 12 14 15 15 13
8 8 3 4 11 11 12 15 3 12 16 15 43 10 14 35 50 47 44 47 46 39 28 22 16 13 11 11 12 13 13 13 10 9 8 8 8 9 9 12 13 17 20 19 19 20 21 22 21
5 9 4 6 5 4 11 13 9 5 3 23 13 13 15 50 50 51 48 47 45 39 30 23 15 10 6 7 9 11 10 11 13 14 15 14 15 16 19 19 20 22 25 26 27 28 28 30 30
0 8 3 3 7 12 16 16 20 8 12 15 5 32 39 62 55 54 53 47 39 31 19 10 19 20 11 10 14 13 12 15 18 19 21 22 22 24 28 31 34 37 40 42 37 38 37 38 37
8 7 10 9 4 7 7 9 13 4 7 18 30 36 49 55 60 57 52 50 48 38 29 35 20 13 5 12 16 15 18 24 26 26 29 27 23 20 24 30 34 38 44 47 46 41 44 45 40
5 6 5 7 9 5 8 17 11 9 2 17 48 58 62 65 62 52 48 48 45 8 11 18 24 12 8 7 8 4 15 22 18 18 23 27 22 24 23 30 39 41 41 48 43 43 42 52 43
4 3 6 15 18 4 6 9 12 3 5 25 49 65 72 64 56 33 31 42 44 24 18 12 24 20 11 15 29 27 23 43 28 31 28 24 19 18 23 31 45 46 38 37 42 43 44 56 53
3 10 34 37 27 17 10 16 9 11 10 44 58 64 66 53 45 42 42 41 29 18 16 22 28 20 18 24 32 33 32 35 26 25 14 9 13 14 15 13 14 16 24 32 34 31 37 42 49
17 21 28 31 46 24 10 11 2 8 32 56 62 58 54 44 40 44 28 12 5 7 7 25 18 17 20 18 21 23 16 7 7 12 12 14 18 20 26 29 31 31 29 29 33 32 34 39 39
16 15 17 14 21 7 4 7 7 33 40 51 50 48 44 40 30 30 22 7 6 5 10 7 8 8 8 6 9 12 16 19 20 21 20 20 21 25 31 32 32 34 34 34 33 34 34 32 31
11 8 10 12 30 13 7 8 20 41 65 48 53 53 45 40 37 28 22 22 17 14 15 15 13 13 12 15 16 18 19 16 18 19 21 23 25 28 29 32 36 40 40 40 40 41 39 41 44
12 3 5 16 15 9 12 12 19 33 60 43 47 52 49 44 38 33 40 30 16 14 13 14 15 15 15 16 16 18 19 18 19 18 19 23 25 28 32 36 39 41 41 41 41 41 45 47 46
5 5 5 7 14 14 12 14 16 31 55 49 52 58 52 50 39 32 32 34 14 12 12 13 13 14 15 15 14 14 13 14 15 17 19 21 26 33 38 41 43 44 42 42 42 42 41 43 46
7 7 6 7 8 9 8 17 12 26 50 42 35 45 49 47 50 30 33 34 17 11 9 10 13 11 9 10 12 14 15 13 13 18 20 22 30 38 44 46 43 42 44 47 47 46 47 48 52
11 7 8 8 7 3 20 29 21 22 15 31 39 45 50 49 43 38 39 33 22 16 14 12 13 15 16 17 18 16 14 9 13 17 17 21 29 38 46 50 48 44 43 43 46 48 48 48 51
7 7 6 7 7 2 12 15 15 16 38 30 32 41 43 43 42 38 41 32 21 15 17 18 18 18 16 17 14 13 7 6 15 12 14 23 31 37 44 46 50 48 48 49 48 47 47 49 47
5 7 6 2 7 4 4 5 11 4 19 20 31 40 40 37 31 26 24 22 17 11 11 11 13 15 14 14 11 9 8 12 14 17 20 27 37 43 43 46 46 47 50 48 47 45 44 45 47
13 9 7 6 5 3 2 11 9 7 11 10 21 25 29 33 35 17 5 10 15 9 8 8 7 13 17 16 9 7 9 9 11 16 23 28 35 36 40 38 36 42 48 44 40 41 42 44 47
4 4 11 9 5 0 6 9 9 10 12 9 24 30 31 32 28 25 22 23 18 18 16 10 4 11 14 11 6 3 4 4 14 23 30 35 38 38 39 36 39 42 48 48 49 50 49 45 42
7 10 6 7 8 7 7 5 9 11 14 15 30 40 42 40 34 28 25 29 24 21 22 12 4 2 4 8 5 5 5 12 22 27 29 35 37 41 38 31 32 42 47 46 49 49 50 53 56
4 11 9 5 4 5 7 5 6 5 25 23 35 51 46 41 35 30 25 19 16 19 16 16 16 9 9 8 8 9 9 11 18 21 30 34 36 36 35 39 44 49 50 52 53 53 53 56 55
7 3 6 9 6 5 2 7 8 11 14 31 37 40 39 35 31 26 23 20 16 11 18 24 23 18 14 13 14 12 9 15 22 31 37 42 42 44 44 44 44 46 48 51 53 54 56 56 58
8 9 4 6 4 6 5 6 9 13 16 16 30 42 37 35 34 31 25 19 18 16 16 18 22 22 19 17 15 14 15 22 29 35 39 39 38 40 43 45 48 51 52 53 54 55 55 54 55
4 3 9 8 8 8 3 11 13 26 22 30 40 50 44 39 34 30 27 26 22 21 19 19 18 17 15 11 12 17 22 26 29 29 29 32 37 41 45 49 51 53 55 57 59 55 52 54 60
3 5 8 8 7 2 7 11 4 14 35 49 46 55 45 39 35 29 26 21 20 15 14 13 12 9 8 12 18 21 21 20 21 26 31 35 40 45 47 50 53 56 56 53 50 50 52 61 68
Wind_Direction_500mb
22 343 350 359 53 56 284 273 273 103 144 179 184 197 198 135 165 196 154 173 177 173 172 171 165 169 166 156 148 144 140 136 134 135 137 138 135 132 132 128 121 110 92 84 76 81 92 96 102
23 342 359 55 75 45 308 272 197 173 174 167 171 141 196 96 116 139 156 168 177 175 172 169 166 172 170 164 156 152 148 143 137 134 133 129 120 111 106 109 106 84 63 55 54 65 88 112 128
2 10 21 89 114 149 239 270 304 45 121 132 150 190 116 117 132 144 159 166 169 172 166 167 168 175 175 172 164 157 151 143 133 131 129 126 124 122 119 119 114 99 61 37 40 49 75 111 141
347 77 71 80 263 253 214 150 172 153 205 224 140 63 81 70 125 153 162 156 166 162 155 162 164 169 173 171 164 152 148 145 135 129 131 131 126 131 139 134 114 70 46 2 351 352 357 27 178
13 36 46 30 277 259 271 320 178 182 166 146 82 86 71 111 192 155 150 156 162 153 153 159 158 164 167 171 173 165 157 155 147 132 132 126 117 23 343 349 334 329 325 321 320 318 318 312 270
46 59 48 347 302 310 308 7 7 138 150 135 125 98 64 134 151 146 152 155 157 152 148 146 154 164 175 176 176 173 172 175 173 179 178 190 213 244 271 297 300 301 300 299 295 296 297 295 287
99 81 166 269 317 343 321 348 54 125 153 198 134 97 136 161 151 150 155 156 154 150 151 142 132 137 164 181 187 187 191 196 204 212 219 237 243 252 268 283 292 298 295 291 291 287 284 279 273
20 87 43 320 344 304 332 21 35 138 245 136 118 164 176 167 161 156 154 158 158 150 147 142 149 186 166 194 209 218 220 237 239 244 253 258 264 271 269 270 273 266 271 272 269 269 268 269 267
104 56 356 292 358 294 2 22 43 4 153 48 58 177 170 164 168 160 154 147 146 124 99 154 187 174 209 248 261 266 270 279 289 288 286 286 291 299 306 306 299 296 290 285 272 269 266 266 268
74 102 231 210 246 257 323 25 17 33 276 78 104 153 160 164 170 167 163 156 139 98 44 275 222 242 232 259 276 277 318 321 313 307 304 303 305 308 311 313 309 305 309 309 302 290 285 277 281
31 191 301 330 326 295 326 329 330 117 222 181 154 154 161 165 167 172 157 141 132 127 298 220 210 157 128 268 292 352 333 300 305 319 312 302 308 309 315 322 322 314 311 309 311 311 301 292 287
11 356 15 314 329 314 268 281 297 188 26 183 164 165 163 163 167 175 160 159 174 197 257 242 212 208 175 234 274 282 245 257 260 258 260 260 281 304 318 328 308 313 316 311 306 308 296 293 284
123 327 321 322 313 306 280 273 268 315 147 157 164 167 167 170 167 169 165 173 187 218 208 191 183 196 229 232 239 241 240 254 249 256 267 308 1 11 15 2 355 326 336 342 340 330 307 298 291
316 300 311 315 302 283 224 271 194 94 155 151 170 171 165 159 157 154 161 175 146 115 135 172 198 223 251 244 255 267 282 298 19 38 36 41 39 37 39 35 21 12 3 347 340 340 333 322 309
310 346 335 331 329 310 185 348 51 145 150 134 151 154 145 145 148 136 126 85 8 18 71 153 252 258 255 319 28 75 69 69 63 62 69 68 51 34 34 30 22 14 3 350 335 321 309 302 302
16 39 3 311 357 11 90 301 139 134 134 116 124 136 134 123 126 137 118 80 63 64 75 91 93 92 86 84 78 66 63 58 68 69 59 46 39 33 32 24 18 12 2 352 341 329 315 306 303
7 349 341 323 355 356 52 85 113 121 116 115 123 127 130 130 128 117 118 100 80 77 76 89 85 72 61 57 51 47 55 61 62 59 51 45 43 34 24 17 11 6 1 355 348 341 333 328 322
287 338 320 302 319 10 32 68 134 138 121 123 132 136 138 135 123 121 106 95 103 82 72 62 62 54 43 35 32 42 48 51 68 56 48 50 38 25 16 10 6 4 2 358 353 347 344 342 336
236 231 276 255 277 344 356 46 82 119 126 126 126 140 143 133 126 132 101 91 90 82 68 63 56 52 49 26 18 19 24 40 51 37 44 39 24 18 15 12 9 7 4 359 353 349 345 346 345
234 250 281 292 282 202 74 39 95 117 104 117 139 150 152 144 136 125 99 91 89 74 65 61 58 47 34 14 359 350 357 33 23 23 25 14 9 8 6 7 6 2 1 357 352 351 349 348 356
240 200 245 244 318 31 101 46 29 44 103 134 151 151 149 142 132 127 110 106 110 122 96 80 72 63 59 43 13 348 354 19 7 7 357 356 356 354 356 359 357 353 351 351 351 348 348 347 349
243 197 226 241 67 239 80 166 40 5 113 129 147 154 150 139 129 119 119 111 102 128 117 103 89 72 63 48 37 13 347 345 355 356 348 342 345 344 347 353 353 349 345 341 342 343 343 341 340
228 201 181 189 166 91 304 91 163 202 108 126 154 140 140 134 116 100 79 200 98 180 163 147 107 76 55 46 43 24 355 26 15 344 337 337 346 345 343 349 343 332 331 333 334 333 336 339 336
153 45 40 38 109 174 271 117 203 185 190 137 108 117 142 162 159 171 187 204 206 199 198 179 119 66 50 39 61 34 65 26 318 330 330 338 337 338 333 333 330 327 324 325 326 325 323 322 322
82 59 344 354 22 224 358 54 222 186 154 146 134 139 139 144 145 146 168 196 203 210 204 193 154 96 90 95 118 139 235 303 328 324 331 329 334 332 328 321 320 319 321 320 319 318 318 315 308
161 145 156 229 183 239 3 235 264 173 171 159 150 145 144 141 138 131 126 127 145 173 190 202 195 197 182 187 221 245 280 299 309 321 331 329 330 328 321 315 313 311 307 308 309 308 308 304 304
175 118 184 113 17 76 239 302 326 107 141 153 153 152 143 138 134 129 122 111 103 127 184 191 204 213 215 220 229 247 255 279 308 324 325 324 326 325 324 322 321 320 319 318 316 315 313 311 306
119 155 74 12 179 246 258 260 229 181 175 169 164 165 156 146 137 129 115 104 102 120 150 187 205 209 207 209 228 249 280 306 315 319 321 327 332 335 334 332 331 328 325 323 323 323 322 317 312
16 65 58 106 138 172 186 256 212 198 175 184 184 180 169 158 151 143 131 126 123 123 134 149 164 179 200 226 266 298 308 316 321 327 334 335 336 334 335 335 333 330 330 329 328 326 324 319 317
109 146 124 122 217 109 151 271 232 209 171 180 178 182 179 171 162 152 146 139 140 144 153 164 171 199 240 288 305 310 319 329 336 339 339 340 341 340 337 334 332 331 330 331 331 325 322 318 317
Wind_Speed_850mb
8 11 20 5 8 10 3 7 6 8 7 30 30 17 13 5 7 8 32 43 40 50 48 44 40 37 32 28 27 27 25 24 22 21 21 21 21 21 19 14 11 9 8 8 9 9 11 11 11
8 14 7 6 10 9 11 8 13 17 24 33 37 22 1 2 8 23 37 41 40 46 45 42 39 38 33 28 24 23 24 23 23 19 16 15 14 14 14 12 9 7 7 8 7 7 8 8 9
9 10 5 9 8 2 4 5 8 18 36 22 14 11 6 12 18 40 39 36 49 43 40 38 37 36 33 26 22 21 20 20 19 20 19 15 14 14 12 9 9 7 5 5 5 5 5 5 5
9 2 10 8 3 8 8 9 12 10 12 9 17 8 12 13 27 21 46 46 48 41 36 32 31 32 27 20 15 17 17 15 15 15 16 13 10 7 7 5 4 3 3 6 8 8 6 2 3
7 7 9 6 8 8 8 10 26 12 9 12 3 5 11 12 10 32 48 46 42 40 38 34 32 29 25 20 15 15 15 14 9 8 8 7 5 2 5 4 6 5 6 6 8 11 11 8 4
5 5 8 7 10 13 10 10 2 12 23 14 22 15 10 17 36 50 44 45 42 38 31 27 26 23 19 18 17 16 14 12 12 8 5 3 3 4 5 9 10 12 12 12 12 14 15 15 13
8 8 3 4 11 11 12 15 3 12 16 15 43 10 14 35 50 47 44 47 46 39 28 22 16 13 11 11 12 13 13 13 10 9 8 8 8 9 9 12 13 17 20 19 19 20 21 22 21
5 9 4 6 5 4 11 13 9 5 3 23 13 13 15 50 50 51 48 47 45 39 30 23 15 10 6 7 9 11 10 11 13 14 15 14 15 16 19 19 20 22 25 26 27 28 28 30 30
0 8 3 3 7 12 16 16 20 8 12 15 5 32 39 62 55 54 53 47 39 31 19 10 19 20 11 10 14 13 12 15 18 19 21 22 22 24 28 31 34 37 40 42 37 38 37 38 37
8 7 10 9 4 7 7 9 13 4 7 18 30 36 49 55 60 57 52 50 48 38 29 35 20 13 5 12 16 15 18 24 26 26 29 27 23 20 24 30 34 38 44 47 46 41 44 45 40
5 6 5 7 9 5 8 17 11 9 2 17 48 58 62 65 62 52 48 48 45 8 11 18 24 12 8 7 8 4 15 22 18 18 23 27 22 24 23 30 39 41 41 48 43 43 42 52 43
4 3 6 15 18 4 6 9 12 3 5 25 49 65 72 64 56 33 31 42 44 24 18 12 24 20 11 15 29 27 23 43 28 31 28 24 19 18 23 31 45 46 38 37 42 43 44 56 53
3 10 34 37 27 17 10 16 9 11 10 44 58 64 66 53 45 42 42 41 29 18 16 22 28 20 18 24 32 33 32 35 26 25 14 9 13 14 15 13 14 16 24 32 34 31 37 42 49
17 21 28 31 46 24 10 11 2 8 32 56 62 58 54 44 40 44 28 12 5 7 7 25 18 17 20 18 21 23 16 7 7 12 12 14 18 20 26 29 31 31 29 29 33 32 34 39 39
16 15 17 14 21 7 4 7 7 33 40 51 50 48 44 40 30 30 22 7 6 5 10 7 8 8 8 6 9 12 16 19 20 21 20 20 21 25 31 32 32 34 34 34 33 34 34 32 31
11 8 10 12 30 13 7 8 20 41 65 48 53 53 45 40 37 28 22 22 17 14 15 15 13 13 12 15 16 18 19 16 18 19 21 23 25 28 29 32 36 40 40 40 40 41 39 41 44
12 3 5 16 15 9 12 12 19 33 60 43 47 52 49 44 38 33 40 30 16 14 13 14 15 15 15 16 16 18 19 18 19 18 19 23 25 28 32 36 39 41 41 41 41 41 45 47 46
5 5 5 7 14 14 12 14 16 31 55 49 52 58 52 50 39 32 32 34 14 12 12 13 13 14 15 15 14 14 13 14 15 17 19 21 26 33 38 41 43 44 42 42 42 42 41 43 46
7 7 6 7 8 9 8 17 12 26 50 42 35 45 49 47 50 30 33 34 17 11 9 10 13 11 9 10 12 14 15 13 13 18 20 22 30 38 44 46 43 42 44 47 47 46 47 48 52
11 7 8 8 7 3 20 29 21 22 15 31 39 45 50 49 43 38 39 33 22 16 14 12 13 15 16 17 18 16 14 9 13 17 17 21 29 38 46 50 48 44 43 43 46 48 48 48 51
7 7 6 7 7 2 12 15 15 16 38 30 32 41 43 43 42 38 41 32 21 15 17 18 18 18 16 17 14 13 7 6 15 12 14 23 31 37 44 46 50 48 48 49 48 47 47 49 47
5 7 6 2 7 4 4 5 11 4 19 20 31 40 40 37 31 26 24 22 17 11 11 11 13 15 14 14 11 9 8 12 14 17 20 27 37 43 43 46 46 47 50 48 47 45 44 45 47
13 9 7 6 5 3 2 11 9 7 11 10 21 25 29 33 35 17 5 10 15 9 8 8 7 13 17 16 9 7 9 9 11 16 23 28 35 36 40 38 36 42 48 44 40 41 42 44 47
4 4 11 9 5 0 6 9 9 10 12 9 24 30 31 32 28 25 22 23 18 18 16 10 4 11 14 11 6 3 4 4 14 23 30 35 38 38 39 36 39 42 48 48 49 50 49 45 42
7 10 6 7 8 7 7 5 9 11 14 15 30 40 42 40 34 28 25 29 24 21 22 12 4 2 4 8 5 5 5 12 22 27 29 35 37 41 38 31 32 42 47 46 49 49 50 53 56
4 11 9 5 4 5 7 5 6 5 25 23 35 51 46 41 35 30 25 19 16 19 16 16 16 9 9 8 8 9 9 11 18 21 30 34 36 36 35 39 44 49 50 52 53 53 53 56 55
7 3 6 9 6 5 2 7 8 11 14 31 37 40 39 35 31 26 23 20 16 11 18 24 23 18 14 13 14 12 9 15 22 31 37 42 42 44 44 44 44 46 48 51 53 54 56 56 58
8 9 4 6 4 6 5 6 9 13 16 16 30 42 37 35 34 31 25 19 18 16 16 18 22 22 19 17 15 14 15 22 29 35 39 39 38 40 43 45 48 51 52 53 54 55 55 54 55
4 3 9 8 8 8 3 11 13 26 22 30 40 50 44 39 34 30 27 26 22 21 19 19 18 17 15 11 12 17 22 26 29 29 29 32 37 41 45 49 51 53 55 57 59 55 52 54 60
3 5 8 8 7 2 7 11 4 14 35 49 46 55 45 39 35 29 26 21 20 15 14 13 12 9 8 12 18 21 21 20 21 26 31 35 40 45 47 50 53 56 56 53 50 50 52 61 68
Wind_Direction_850mb
22 343 350 359 53 56 284 273 273 103 144 179 184 197 198 135 165 196 154 173 177 173 172 171 165 169 166 156 148 144 140 136 134 135 137 138 135 132 132 128 121 110 92 84 76 81 92 96 102
23 342 359 55 75 45 308 272 197 173 174 167 171 141 196 96 116 139 156 168 177 175 172 169 166 172 170 164 156 152 148 143 137 134 133 129 120 111 106 109 106 84 63 55 54 65 88 112 128
2 10 21 89 114 149 239 270 304 45 121 132 150 190 116 117 132 144 159 166 169 172 166 167 168 175 175 172 164 157 151 143 133 131 129 126 124 122 119 119 114 99 61 37 40 49 75 111 141
347 77 71 80 263 253 214 150 172 153 205 224 140 63 81 70 125 153 162 156 166 162 155 162 164 169 173 171 164 152 148 145 135 129 131 131 126 131 139 134 114 70 46 2 351 352 357 27 178
13 36 46 30 277 259 271 320 178 182 166 146 82 86 71 111 192 155 150 156 162 153 153 159 158 164 167 171 173 165 157 155 147 132 132 126 117 23 343 349 334 329 325 321 320 318 318 312 270
46 59 48 347 302 310 308 7 7 138 150 135 125 98 64 134 151 146 152 155 157 152 148 146 154 164 175 176 176 173 172 175 173 179 178 190 213 244 271 297 300 301 300 299 295 296 297 295 287
99 81 166 269 317 343 321 348 54 125 153 198 134 97 136 161 151 150 155 156 154 150 151 142 132 137 164 181 187 187 191 196 204 212 219 237 243 252 268 283 292 298 295 291 291 287 284 279 273
20 87 43 320 344 304 332 21 35 138 245 136 118 164 176 167 161 156 154 158 158 150 147 142 149 186 166 194 209 218 220 237 239 244 253 258 264 271 269 270 273 266 271 272 269 269 268 269 267
104 56 356 292 358 294 2 22 43 4 153 48 58 177 170 164 168 160 154 147 146 124 99 154 187 174 209 248 261 266 270 279 289 288 286 286 291 299 306 306 299 296 290 285 272 269 266 266 268
74 102 231 210 246 257 323 25 17 33 276 78 104 153 160 164 170 167 163 156 139 98 44 275 222 242 232 259 276 277 318 321 313 307 304 303 305 308 311 313 309 305 309 309 302 290 285 277 281
31 191 301 330 326 295 326 329 330 117 222 181 154 154 161 165 167 172 157 141 132 127 298 220 210 157 128 268 292 352 333 300 305 319 312 302 308 309 315 322 322 314 311 309 311 311 301 292 287
11 356 15 314 329 314 268 281 297 188 26 183 164 165 163 163 167 175 160 159 174 197 257 242 212 208 175 234 274 282 245 257 260 258 260 260 281 304 318 328 308 313 316 311 306 308 296 293 284
123 327 321 322 313 306 280 273 268 315 147 157 164 167 167 170 167 169 165 173 187 218 208 191 183 196 229 232 239 241 240 254 249 256 267 308 1 11 15 2 355 326 336 342 340 330 307 298 291
316 300 311 315 302 283 224 271 194 94 155 151 170 171 165 159 157 154 161 175 146 115 135 172 198 223 251 244 255 267 282 298 19 38 36 41 39 37 39 35 21 12 3 347 340 340 333 322 309
310 346 335 331 329 310 185 348 51 145 150 134 151 154 145 145 148 136 126 85 8 18 71 153 252 258 255 319 28 75 69 69 63 62 69 68 51 34 34 30 22 14 3 350 335 321 309 302 302
16 39 3 311 357 11 90 301 139 134 134 116 124 136 134 123 126 137 118 80 63 64 75 91 93 92 86 84 78 66 63 58 68 69 59 46 39 33 32 24 18 12 2 352 341 329 315 306 303
7 349 341 323 355 356 52 85 113 121 116 115 123 127 130 130 128 117 118 100 80 77 76 89 85 72 61 57 51 47 55 61 62 59 51 45 43 34 24 17 11 6 1 355 348 341 333 328 322
287 338 320 302 319 10 32 68 134 138 121 123 132 136 138 135 123 121 106 95 103 82 72 62 62 54 43 35 32 42 48 51 68 56 48 50 38 25 16 10 6 4 2 358 353 347 344 342 336
236 231 276 255 277 344 356 46 82 119 126 126 126 140 143 133 126 132 101 91 90 82 68 63 56 52 49 26 18 19 24 40 51 37 44 39 24 18 15 12 9 7 4 359 353 349 345 346 345
234 250 281 292 282 202 74 39 95 117 104 117 139 150 152 144 136 125 99 91 89 74 65 61 58 47 34 14 359 350 357 33 23 23 25 14 9 8 6 7 6 2 1 357 352 351 349 348 356
240 200 245 244 318 31 101 46 29 44 103 134 151 151 149 142 132 127 110 106 110 122 96 80 72 63 59 43 13 348 354 19 7 7 357 356 356 354 356 359 357 353 351 351 351 348 348 347 349
243 197 226 241 67 239 80 166 40 5 113 129 147 154 150 139 129 119 119 111 102 128 117 103 89 72 63 48 37 13 347 345 355 356 348 342 345 344 347 353 353 349 345 341 342 343 343 341 340
228 201 181 189 166 91 304 91 163 202 108 126 154 140 140 134 116 100 79 200 98 180 163 147 107 76 55 46 43 24 355 26 15 344 337 337 346 345 343 349 343 332 331 333 334 333 336 339 336
153 45 40 38 109 174 271 117 203 185 190 137 108 117 142 162 159 171 187 204 206 199 198 179 119 66 50 39 61 34 65 26 318 330 330 338 337 338 333 333 330 327 324 325 326 325 323 322 322
82 59 344 354 22 224 358 54 222 186 154 146 134 139 139 144 145 146 168 196 203 210 204 193 154 96 90 95 118 139 235 303 328 324 331 329 334 332 328 321 320 319 321 320 319 318 318 315 308
161 145 156 229 183 239 3 235 264 173 171 159 150 145 144 141 138 131 126 127 145 173 190 202 195 197 182 187 221 245 280 299 309 321 331 329 330 328 321 315 313 311 307 308 309 308 308 304 304
175 118 184 113 17 76 239 302 326 107 141 153 153 152 143 138 134 129 122 111 103 127 184 191 204 213 215 220 229 247 255 279 308 324 325 324 326 325 324 322 321 320 319 318 316 315 313 311 306
119 155 74 12 179 246 258 260 229 181 175 169 164 165 156 146 137 129 115 104 102 120 150 187 205 209 207 209 228 249 280 306 315 319 321 327 332 335 334 332 331 328 325 323 323 323 322 317 312
16 65 58 106 138 172 186 256 212 198 175 184 184 180 169 158 151 143 131 126 123 123 134 149 164 179 200 226 266 298 308 316 321 327 334 335 336 334 335 335 333 330 330 329 328 326 324 319 317
109 146 124 122 217 109 151 271 232 209 171 180 178 182 179 171 162 152 146 139 140 144 153 164 171 199 240 288 305 310 319 329 336 339 339 340 341 340 337 334 332 331 330 331 331 325 322 318 317